,,,PA_Meas_PMT16A,,PR_Meas_QMR101_102,,RH_Meas_QMH101,,SR_Meas_QMS101,,TA_Meas_QMH101,,GenWind,,GenWind,
date,time,status,PA,status,PR,status,RH,status,SR,status,TA,status,DirAvg,status,SpdAvg,
2008-09-25, 00:00:04,VALID,1004.98,VALID,0,VALID,94.1022,VALID,0,VALID,24.1902,VALID,349,VALID,0.532422,
2008-09-25, 00:01:04,VALID,1004.95,VALID,0,VALID,94.0031,VALID,0,VALID,24.231,VALID,357,VALID,0.509766,
2008-09-25, 00:02:04,VALID,1004.93,VALID,0,VALID,93.8734,VALID,0,VALID,24.2894,VALID,352,VALID,0.446484,
2008-09-25, 00:03:04,VALID,1004.92,VALID,0,VALID,93.7132,VALID,0,VALID,24.3265,VALID,338,VALID,0.453906,
2008-09-25, 00:04:04,VALID,1004.95,VALID,0,VALID,93.553,VALID,0,VALID,24.4257,VALID,290,VALID,0.310937,
2008-09-25, 00:05:04,VALID,1004.93,VALID,0,VALID,93.2859,VALID,0,VALID,24.523,VALID,352,VALID,0.323047,
2008-09-25, 00:06:04,VALID,1004.94,VALID,0,VALID,93.0113,VALID,0,VALID,24.5814,VALID,355,VALID,0.321094,
2008-09-25, 00:07:04,VALID,1004.94,VALID,0,VALID,92.6756,VALID,0,VALID,24.638,VALID,342,VALID,0.778906,
2008-09-25, 00:08:04,VALID,1004.93,VALID,0,VALID,92.3629,VALID,0,VALID,24.7177,VALID,345,VALID,0.593359,
2008-09-25, 00:09:04,VALID,1004.95,VALID,0,VALID,92.0196,VALID,0,VALID,24.7353,VALID,352,VALID,0.619141,
2008-09-25, 00:10:04,VALID,1004.94,VALID,0,VALID,91.6763,VALID,0,VALID,24.854,VALID,351,VALID,0.655859,
2008-09-25, 00:11:04,VALID,1004.93,VALID,0,VALID,91.455,VALID,0,VALID,24.8735,VALID,351,VALID,0,
2008-09-25, 00:12:04,VALID,1004.92,VALID,0,VALID,91.249,VALID,0,VALID,24.893,VALID,341,VALID,0.266797,
2008-09-25, 00:13:04,VALID,1004.87,VALID,0,VALID,91.0125,VALID,0,VALID,24.9106,VALID,305,VALID,0.636328,
2008-09-25, 00:14:04,VALID,1004.85,VALID,0,VALID,90.7837,VALID,0,VALID,24.9495,VALID,292,VALID,0.268359,
2008-09-25, 00:15:04,VALID,1004.84,VALID,0,VALID,90.6616,VALID,0,VALID,24.9885,VALID,292,VALID,0,
2008-09-25, 00:16:04,VALID,1004.82,VALID,0,VALID,90.5701,VALID,0,VALID,24.9885,VALID,292,VALID,0.252344,
2008-09-25, 00:17:04,VALID,1004.84,VALID,0,VALID,90.6158,VALID,0,VALID,25.0079,VALID,292,VALID,0,
2008-09-25, 00:18:04,VALID,1004.79,VALID,0,VALID,90.4709,VALID,0,VALID,24.9904,VALID,292,VALID,0.0113281,
2008-09-25, 00:19:04,VALID,1004.77,VALID,0,VALID,90.5167,VALID,0,VALID,24.9709,VALID,293,VALID,0.145313,
2008-09-25, 00:20:04,VALID,1004.73,VALID,0,VALID,90.5548,VALID,0,VALID,24.93,VALID,293,VALID,0.220703,
2008-09-25, 00:21:04,VALID,1004.74,VALID,0,VALID,90.6998,VALID,0,VALID,24.9125,VALID,293,VALID,0.290234,
2008-09-25, 00:22:04,VALID,1004.75,VALID,0,VALID,90.8447,VALID,0,VALID,24.8327,VALID,293,VALID,0.141797,
2008-09-25, 00:23:04,VALID,1004.75,VALID,0,VALID,90.9744,VALID,0,VALID,24.7937,VALID,293,VALID,0,
2008-09-25, 00:24:04,VALID,1004.76,VALID,0,VALID,91.1575,VALID,0,VALID,24.7548,VALID,293,VALID,0,
2008-09-25, 00:25:04,VALID,1004.78,VALID,0,VALID,91.3177,VALID,0,VALID,24.7372,VALID,293,VALID,0.139062,
2008-09-25, 00:26:04,VALID,1004.75,VALID,0,VALID,91.4169,VALID,0,VALID,24.6788,VALID,293,VALID,0,
2008-09-25, 00:27:04,VALID,1004.76,VALID,0,VALID,91.5466,VALID,0,VALID,24.6185,VALID,293,VALID,0,
2008-09-25, 00:28:04,VALID,1004.77,VALID,0,VALID,91.6991,VALID,0,VALID,24.6009,VALID,293,VALID,0.114844,
2008-09-25, 00:29:04,VALID,1004.77,VALID,0,VALID,91.7907,VALID,0,VALID,24.599,VALID,293,VALID,0.0394531,
2008-09-25, 00:30:04,VALID,1004.76,VALID,0,VALID,91.7907,VALID,0,VALID,24.599,VALID,293,VALID,0.377734,
2008-09-25, 00:31:04,VALID,1004.75,VALID,0,VALID,91.8288,VALID,0,VALID,24.5212,VALID,293,VALID,0.148438,
2008-09-25, 00:32:04,VALID,1004.77,VALID,0,VALID,91.9051,VALID,0,VALID,24.5017,VALID,293,VALID,0.0363281,
2008-09-25, 00:33:04,VALID,1004.76,VALID,0,VALID,91.9509,VALID,0,VALID,24.4822,VALID,293,VALID,0,
2008-09-25, 00:34:04,VALID,1004.74,VALID,0,VALID,92.0424,VALID,0,VALID,24.4433,VALID,293,VALID,0,
2008-09-25, 00:35:04,VALID,1004.74,VALID,0,VALID,92.1492,VALID,0,VALID,24.4238,VALID,293,VALID,0,
2008-09-25, 00:36:04,VALID,1004.73,VALID,0,VALID,92.2332,VALID,0,VALID,24.4451,VALID,293,VALID,0,
2008-09-25, 00:37:04,VALID,1004.7,VALID,0,VALID,92.3095,VALID,0,VALID,24.3849,VALID,293,VALID,0,
2008-09-25, 00:38:04,VALID,1004.69,VALID,0,VALID,92.3934,VALID,0,VALID,24.3867,VALID,293,VALID,0,
2008-09-25, 00:39:04,VALID,1004.7,VALID,0,VALID,92.5307,VALID,0,VALID,24.3673,VALID,293,VALID,0.0367187,
2008-09-25, 00:40:04,VALID,1004.63,VALID,0,VALID,92.5993,VALID,0,VALID,24.3459,VALID,293,VALID,0.170312,
2008-09-25, 00:41:04,VALID,1004.63,VALID,0,VALID,92.6299,VALID,0,VALID,24.307,VALID,293,VALID,0.308203,
2008-09-25, 00:42:04,VALID,1004.62,VALID,0,VALID,92.6833,VALID,0,VALID,24.3283,VALID,293,VALID,0.392578,
2008-09-25, 00:43:04,VALID,1004.6,VALID,0,VALID,92.7672,VALID,0,VALID,24.2894,VALID,293,VALID,0.397656,
2008-09-25, 00:44:04,VALID,1004.6,VALID,0,VALID,92.874,VALID,0,VALID,24.2699,VALID,293,VALID,0.344922,
2008-09-25, 00:45:04,VALID,1004.56,VALID,0,VALID,92.8282,VALID,0,VALID,24.2115,VALID,293,VALID,0.29375,
2008-09-25, 00:46:04,VALID,1004.59,VALID,0,VALID,92.9579,VALID,0,VALID,24.192,VALID,293,VALID,0.367969,
2008-09-25, 00:47:04,VALID,1004.57,VALID,0,VALID,93.0342,VALID,0,VALID,24.1726,VALID,293,VALID,0.272266,
2008-09-25, 00:48:04,VALID,1004.57,VALID,0,VALID,93.141,VALID,0,VALID,24.1531,VALID,293,VALID,0.257422,
2008-09-25, 00:49:04,VALID,1004.57,VALID,0,VALID,93.202,VALID,0,VALID,24.1318,VALID,293,VALID,0.0105469,
2008-09-25, 00:50:04,VALID,1004.55,VALID,0,VALID,93.2707,VALID,0,VALID,24.1318,VALID,293,VALID,0,
2008-09-25, 00:51:04,VALID,1004.56,VALID,0,VALID,93.2936,VALID,0,VALID,24.1123,VALID,293,VALID,0,
2008-09-25, 00:52:04,VALID,1004.59,VALID,0,VALID,93.3546,VALID,0,VALID,24.0929,VALID,293,VALID,0,
2008-09-25, 00:53:04,VALID,1004.52,VALID,0,VALID,93.4309,VALID,0,VALID,24.1123,VALID,293,VALID,0,
2008-09-25, 00:54:04,VALID,1004.54,VALID,0,VALID,93.4462,VALID,0,VALID,24.1123,VALID,293,VALID,0,
2008-09-25, 00:55:04,VALID,1004.51,VALID,0,VALID,93.4767,VALID,0,VALID,24.0929,VALID,293,VALID,0,
2008-09-25, 00:56:04,VALID,1004.51,VALID,0,VALID,93.4767,VALID,0,VALID,24.1123,VALID,293,VALID,0,
2008-09-25, 00:57:04,VALID,1004.5,VALID,0,VALID,93.5072,VALID,0,VALID,24.0929,VALID,293,VALID,0,
2008-09-25, 00:58:04,VALID,1004.5,VALID,0,VALID,93.553,VALID,0,VALID,24.0929,VALID,293,VALID,0,
2008-09-25, 00:59:04,VALID,1004.53,VALID,0,VALID,93.614,VALID,0,VALID,24.1336,VALID,293,VALID,0,
2008-09-25, 01:00:04,VALID,1004.51,VALID,0,VALID,93.6292,VALID,0,VALID,24.1123,VALID,293,VALID,0.0351563,
2008-09-25, 01:01:04,VALID,1004.49,VALID,0,VALID,93.5911,VALID,0,VALID,24.1531,VALID,293,VALID,0.158203,
2008-09-25, 01:02:04,VALID,1004.5,VALID,0,VALID,93.6216,VALID,0,VALID,24.1318,VALID,293,VALID,0.364844,
2008-09-25, 01:03:04,VALID,1004.52,VALID,0,VALID,93.6369,VALID,0,VALID,24.1726,VALID,293,VALID,0.312891,
2008-09-25, 01:04:04,VALID,1004.49,VALID,0,VALID,93.6369,VALID,0,VALID,24.1513,VALID,293,VALID,0.342187,
2008-09-25, 01:05:04,VALID,1004.47,VALID,0,VALID,93.6292,VALID,0,VALID,24.1726,VALID,293,VALID,0.286328,
2008-09-25, 01:06:04,VALID,1004.45,VALID,0,VALID,93.6292,VALID,0,VALID,24.1513,VALID,293,VALID,0.246484,
2008-09-25, 01:07:04,VALID,1004.42,VALID,0,VALID,93.6292,VALID,0,VALID,24.1513,VALID,293,VALID,0.236328,
2008-09-25, 01:08:04,VALID,1004.39,VALID,0,VALID,93.6369,VALID,0,VALID,24.1726,VALID,293,VALID,0,
2008-09-25, 01:09:04,VALID,1004.39,VALID,0,VALID,93.6064,VALID,0,VALID,24.1744,VALID,293,VALID,0,
2008-09-25, 01:10:04,VALID,1004.4,VALID,0,VALID,93.6292,VALID,0,VALID,24.1531,VALID,293,VALID,0.161719,
2008-09-25, 01:11:04,VALID,1004.4,VALID,0,VALID,93.6521,VALID,0,VALID,24.1336,VALID,293,VALID,0.260938,
2008-09-25, 01:12:04,VALID,1004.41,VALID,0,VALID,93.6903,VALID,0,VALID,24.1549,VALID,293,VALID,0.224609,
2008-09-25, 01:13:04,VALID,1004.41,VALID,0,VALID,93.6598,VALID,0,VALID,24.1142,VALID,293,VALID,0.326953,
2008-09-25, 01:14:04,VALID,1004.4,VALID,0,VALID,93.7132,VALID,0,VALID,24.0947,VALID,293,VALID,0.384375,
2008-09-25, 01:15:04,VALID,1004.42,VALID,0,VALID,93.7437,VALID,0,VALID,24.0947,VALID,293,VALID,0.367969,
2008-09-25, 01:16:04,VALID,1004.43,VALID,0,VALID,93.7818,VALID,0,VALID,24.0752,VALID,293,VALID,0.387109,
2008-09-25, 01:17:04,VALID,1004.44,VALID,0,VALID,93.8123,VALID,0,VALID,24.0539,VALID,293,VALID,0.392578,
2008-09-25, 01:18:04,VALID,1004.41,VALID,0,VALID,93.8505,VALID,0,VALID,24.0752,VALID,293,VALID,0.319141,
2008-09-25, 01:19:04,VALID,1004.44,VALID,0,VALID,93.8963,VALID,0,VALID,24.0752,VALID,293,VALID,0.321875,
2008-09-25, 01:20:04,VALID,1004.42,VALID,0,VALID,93.9802,VALID,0,VALID,24.0752,VALID,293,VALID,0.151562,
2008-09-25, 01:21:04,VALID,1004.43,VALID,0,VALID,93.942,VALID,0,VALID,24.0539,VALID,293,VALID,0.355469,
2008-09-25, 01:22:04,VALID,1004.42,VALID,0,VALID,93.8734,VALID,0,VALID,24.0734,VALID,293,VALID,0.344141,
2008-09-25, 01:23:04,VALID,1004.41,VALID,0,VALID,93.7895,VALID,0,VALID,24.0539,VALID,293,VALID,0.3,
2008-09-25, 01:24:04,VALID,1004.39,VALID,0,VALID,93.7208,VALID,0,VALID,24.0345,VALID,293,VALID,0.317578,
2008-09-25, 01:25:04,VALID,1004.4,VALID,0,VALID,93.7589,VALID,0,VALID,24.015,VALID,293,VALID,0.392188,
2008-09-25, 01:26:04,VALID,1004.41,VALID,0,VALID,93.8505,VALID,0,VALID,24.015,VALID,293,VALID,0.286328,
2008-09-25, 01:27:04,VALID,1004.38,VALID,0,VALID,93.9039,VALID,0,VALID,23.9761,VALID,293,VALID,0.244531,
2008-09-25, 01:28:04,VALID,1004.39,VALID,0,VALID,93.942,VALID,0,VALID,23.9761,VALID,293,VALID,0.357422,
2008-09-25, 01:29:04,VALID,1004.4,VALID,0,VALID,94.0031,VALID,0,VALID,23.9779,VALID,293,VALID,0.357812,
2008-09-25, 01:30:04,VALID,1004.42,VALID,0,VALID,94.0641,VALID,0,VALID,23.9973,VALID,293,VALID,0.344141,
2008-09-25, 01:31:04,VALID,1004.4,VALID,0,VALID,94.0946,VALID,0,VALID,23.9566,VALID,293,VALID,0.279297,
2008-09-25, 01:32:04,VALID,1004.43,VALID,0,VALID,94.1328,VALID,0,VALID,23.9371,VALID,293,VALID,0.310156,
2008-09-25, 01:33:04,VALID,1004.43,VALID,0,VALID,94.1404,VALID,0,VALID,23.9371,VALID,293,VALID,0.360156,
2008-09-25, 01:34:04,VALID,1004.42,VALID,0,VALID,94.1785,VALID,0,VALID,23.9177,VALID,293,VALID,0.457812,
2008-09-25, 01:35:04,VALID,1004.42,VALID,0,VALID,94.3082,VALID,0,VALID,23.9177,VALID,308,VALID,0.455469,
2008-09-25, 01:36:04,VALID,1004.4,VALID,0,VALID,94.293,VALID,0,VALID,23.9389,VALID,340,VALID,0.530078,
2008-09-25, 01:37:04,VALID,1004.39,VALID,0,VALID,94.3006,VALID,0,VALID,23.9584,VALID,341,VALID,0.488672,
2008-09-25, 01:38:04,VALID,1004.42,VALID,0,VALID,94.2701,VALID,0,VALID,23.9389,VALID,357,VALID,0.653906,
2008-09-25, 01:39:04,VALID,1004.41,VALID,0,VALID,94.2624,VALID,0,VALID,23.9177,VALID,358,VALID,0.607031,
2008-09-25, 01:40:04,VALID,1004.4,VALID,0,VALID,94.2624,VALID,0,VALID,23.9177,VALID,340,VALID,0.482812,
2008-09-25, 01:41:04,VALID,1004.38,VALID,0,VALID,94.2701,VALID,0,VALID,23.9584,VALID,351,VALID,0.562109,
2008-09-25, 01:42:04,VALID,1004.4,VALID,0,VALID,94.293,VALID,0,VALID,23.9371,VALID,341,VALID,0.500391,
2008-09-25, 01:43:04,VALID,1004.4,VALID,0,VALID,94.3082,VALID,0,VALID,23.9566,VALID,345,VALID,0.153906,
2008-09-25, 01:44:04,VALID,1004.41,VALID,0,VALID,94.3082,VALID,0,VALID,23.9955,VALID,331,VALID,0.0164062,
2008-09-25, 01:45:04,VALID,1004.44,VALID,0,VALID,94.2777,VALID,0,VALID,23.9955,VALID,339,VALID,0.613672,
2008-09-25, 01:46:04,VALID,1004.44,VALID,0,VALID,94.209,VALID,0,VALID,24.0345,VALID,348,VALID,0.558594,
2008-09-25, 01:47:04,VALID,1004.46,VALID,0,VALID,94.1251,VALID,0,VALID,24.0557,VALID,358,VALID,0.479297,
2008-09-25, 01:48:04,VALID,1004.47,VALID,0,VALID,94.0412,VALID,0,VALID,24.0345,VALID,358,VALID,0.403516,
2008-09-25, 01:49:04,VALID,1004.45,VALID,0,VALID,93.9573,VALID,0,VALID,24.0345,VALID,358,VALID,0.341406,
2008-09-25, 01:50:04,VALID,1004.46,VALID,0,VALID,93.9039,VALID,0,VALID,24.0132,VALID,358,VALID,0.0515625,
2008-09-25, 01:51:04,VALID,1004.42,VALID,0,VALID,93.9344,VALID,0,VALID,24.015,VALID,358,VALID,0,
2008-09-25, 01:52:04,VALID,1004.42,VALID,0,VALID,93.9954,VALID,0,VALID,24.0345,VALID,358,VALID,0,
2008-09-25, 01:53:04,VALID,1004.4,VALID,0,VALID,93.9725,VALID,0,VALID,24.0557,VALID,358,VALID,0,
2008-09-25, 01:54:04,VALID,1004.42,VALID,0,VALID,93.9649,VALID,0,VALID,24.0345,VALID,358,VALID,0,
2008-09-25, 01:55:04,VALID,1004.39,VALID,0,VALID,93.9268,VALID,0,VALID,24.0345,VALID,358,VALID,0.183203,
2008-09-25, 01:56:04,VALID,1004.4,VALID,0,VALID,93.8886,VALID,0,VALID,24.0345,VALID,358,VALID,0,
2008-09-25, 01:57:04,VALID,1004.36,VALID,0,VALID,93.8657,VALID,0,VALID,24.0345,VALID,358,VALID,0.287109,
2008-09-25, 01:58:04,VALID,1004.32,VALID,0,VALID,93.7742,VALID,0,VALID,24.015,VALID,358,VALID,0.339844,
2008-09-25, 01:59:04,VALID,1004.28,VALID,0,VALID,93.7055,VALID,0,VALID,24.0168,VALID,358,VALID,0.388672,
2008-09-25, 02:00:04,VALID,1004.29,VALID,0,VALID,93.6903,VALID,0,VALID,23.9955,VALID,358,VALID,0.371484,
2008-09-25, 02:01:04,VALID,1004.24,VALID,0,VALID,93.6521,VALID,0,VALID,23.9761,VALID,358,VALID,0.434766,
2008-09-25, 02:02:04,VALID,1004.25,VALID,0,VALID,93.5606,VALID,0,VALID,23.9371,VALID,358,VALID,0.512891,
2008-09-25, 02:03:04,VALID,1004.23,VALID,0,VALID,93.553,VALID,0,VALID,23.9177,VALID,358,VALID,0.294531,
2008-09-25, 02:04:04,VALID,1004.24,VALID,0,VALID,93.7132,VALID,0,VALID,23.9177,VALID,358,VALID,0.283984,
2008-09-25, 02:05:04,VALID,1004.22,VALID,0,VALID,93.6216,VALID,0,VALID,23.9177,VALID,358,VALID,0.354688,
2008-09-25, 02:06:04,VALID,1004.21,VALID,0,VALID,93.6292,VALID,0,VALID,23.9195,VALID,358,VALID,0.298438,
2008-09-25, 02:07:04,VALID,1004.19,VALID,0,VALID,93.7437,VALID,0,VALID,23.8787,VALID,358,VALID,0.2625,
2008-09-25, 02:08:04,VALID,1004.19,VALID,0,VALID,93.7132,VALID,0,VALID,23.8575,VALID,358,VALID,0.339453,
2008-09-25, 02:09:04,VALID,1004.17,VALID,0,VALID,93.7284,VALID,0,VALID,23.8787,VALID,358,VALID,0.414453,
2008-09-25, 02:10:04,VALID,1004.14,VALID,0,VALID,93.7818,VALID,0,VALID,23.8593,VALID,358,VALID,0.364062,
2008-09-25, 02:11:04,VALID,1004.13,VALID,0,VALID,93.8047,VALID,0,VALID,23.8593,VALID,358,VALID,0.414844,
2008-09-25, 02:12:04,VALID,1004.13,VALID,0,VALID,93.8429,VALID,0,VALID,23.8398,VALID,358,VALID,0.407422,
2008-09-25, 02:13:04,VALID,1004.13,VALID,0,VALID,93.8963,VALID,0,VALID,23.838,VALID,358,VALID,0.526563,
2008-09-25, 02:14:04,VALID,1004.09,VALID,0,VALID,93.9649,VALID,0.100563,VALID,23.8398,VALID,359,VALID,0.512109,
2008-09-25, 02:15:04,VALID,1004.08,VALID,0,VALID,94.0259,VALID,0,VALID,23.8203,VALID,359,VALID,0.591016,
2008-09-25, 02:16:04,VALID,1004.05,VALID,0,VALID,94.0412,VALID,0,VALID,23.8203,VALID,359,VALID,0.584766,
2008-09-25, 02:17:04,VALID,1004.06,VALID,0,VALID,94.087,VALID,0,VALID,23.7814,VALID,359,VALID,0.548437,
2008-09-25, 02:18:04,VALID,1004.08,VALID,0,VALID,94.1404,VALID,0,VALID,23.7814,VALID,359,VALID,0.451172,
2008-09-25, 02:19:04,VALID,1004.03,VALID,0,VALID,94.1556,VALID,0,VALID,23.7425,VALID,359,VALID,0.423047,
2008-09-25, 02:20:04,VALID,1004.02,VALID,0,VALID,94.1938,VALID,0,VALID,23.7425,VALID,359,VALID,0.332812,
2008-09-25, 02:21:04,VALID,1004.04,VALID,0,VALID,94.209,VALID,0,VALID,23.7443,VALID,358,VALID,0.466016,
2008-09-25, 02:22:04,VALID,1004.05,VALID,0,VALID,94.2701,VALID,0,VALID,23.723,VALID,358,VALID,0.228125,
2008-09-25, 02:23:04,VALID,1004.03,VALID,0,VALID,94.2853,VALID,0,VALID,23.723,VALID,358,VALID,0.0078125,
2008-09-25, 02:24:04,VALID,1004.06,VALID,0,VALID,94.2472,VALID,0,VALID,23.7443,VALID,358,VALID,0.20625,
2008-09-25, 02:25:04,VALID,1004.07,VALID,0,VALID,94.2701,VALID,0,VALID,23.723,VALID,358,VALID,0.175781,
2008-09-25, 02:26:04,VALID,1004.11,VALID,0,VALID,94.2777,VALID,0,VALID,23.723,VALID,358,VALID,0.2625,
2008-09-25, 02:27:04,VALID,1004.1,VALID,0,VALID,94.2701,VALID,0,VALID,23.7425,VALID,358,VALID,0.188281,
2008-09-25, 02:28:04,VALID,1004.08,VALID,0,VALID,94.3235,VALID,0,VALID,23.7425,VALID,358,VALID,0.242969,
2008-09-25, 02:29:04,VALID,1004.08,VALID,0,VALID,94.3158,VALID,0,VALID,23.7425,VALID,358,VALID,0.28125,
2008-09-25, 02:30:04,VALID,1004.06,VALID,0,VALID,94.3616,VALID,0,VALID,23.7425,VALID,358,VALID,0.382813,
2008-09-25, 02:31:04,VALID,1004.07,VALID,0,VALID,94.3464,VALID,0,VALID,23.7619,VALID,358,VALID,0.302734,
2008-09-25, 02:32:04,VALID,1004.07,VALID,0,VALID,94.3006,VALID,0,VALID,23.7425,VALID,358,VALID,0.244531,
2008-09-25, 02:33:04,VALID,1004.04,VALID,0,VALID,94.3006,VALID,0,VALID,23.723,VALID,358,VALID,0.267188,
2008-09-25, 02:34:04,VALID,1004.06,VALID,0,VALID,94.3158,VALID,0,VALID,23.7425,VALID,358,VALID,0.168359,
2008-09-25, 02:35:04,VALID,1004.05,VALID,0,VALID,94.2624,VALID,0,VALID,23.723,VALID,358,VALID,0.265234,
2008-09-25, 02:36:04,VALID,1004.02,VALID,0,VALID,94.2853,VALID,0,VALID,23.7035,VALID,358,VALID,0.221484,
2008-09-25, 02:37:04,VALID,1004.04,VALID,0,VALID,94.293,VALID,0.100563,VALID,23.6823,VALID,358,VALID,0.161328,
2008-09-25, 02:38:04,VALID,1004.02,VALID,0,VALID,94.3082,VALID,0,VALID,23.6841,VALID,358,VALID,0.253125,
2008-09-25, 02:39:04,VALID,1004.04,VALID,0,VALID,94.293,VALID,0,VALID,23.6646,VALID,358,VALID,0.29375,
2008-09-25, 02:40:04,VALID,1004.01,VALID,0,VALID,94.293,VALID,0,VALID,23.6452,VALID,358,VALID,0.325,
2008-09-25, 02:41:04,VALID,1003.99,VALID,0,VALID,94.2777,VALID,0,VALID,23.6257,VALID,358,VALID,0.179688,
2008-09-25, 02:42:04,VALID,1003.97,VALID,0,VALID,94.3006,VALID,0,VALID,23.6062,VALID,358,VALID,0.227344,
2008-09-25, 02:43:04,VALID,1003.95,VALID,0,VALID,94.3082,VALID,0,VALID,23.585,VALID,358,VALID,0.244531,
2008-09-25, 02:44:04,VALID,1003.97,VALID,0,VALID,94.3235,VALID,0,VALID,23.5868,VALID,358,VALID,0.280078,
2008-09-25, 02:45:04,VALID,1003.95,VALID,0,VALID,94.354,VALID,0,VALID,23.5868,VALID,358,VALID,0.310937,
2008-09-25, 02:46:04,VALID,1003.92,VALID,0,VALID,94.3464,VALID,0,VALID,23.5673,VALID,358,VALID,0.301172,
2008-09-25, 02:47:04,VALID,1003.93,VALID,0,VALID,94.3616,VALID,0,VALID,23.5478,VALID,358,VALID,0.309375,
2008-09-25, 02:48:04,VALID,1003.93,VALID,0,VALID,94.3616,VALID,0,VALID,23.5089,VALID,358,VALID,0.294141,
2008-09-25, 02:49:04,VALID,1003.91,VALID,0,VALID,94.3616,VALID,0,VALID,23.5089,VALID,358,VALID,0.323828,
2008-09-25, 02:50:04,VALID,1003.94,VALID,0,VALID,94.4455,VALID,0,VALID,23.4894,VALID,358,VALID,0.209375,
2008-09-25, 02:51:04,VALID,1003.94,VALID,0,VALID,94.4761,VALID,0,VALID,23.47,VALID,358,VALID,0.205078,
2008-09-25, 02:52:04,VALID,1003.91,VALID,0,VALID,94.4837,VALID,0,VALID,23.47,VALID,358,VALID,0.00585938,
2008-09-25, 02:53:04,VALID,1003.9,VALID,0,VALID,94.5295,VALID,0,VALID,23.47,VALID,358,VALID,0.0402344,
2008-09-25, 02:54:04,VALID,1003.93,VALID,0,VALID,94.5676,VALID,0.100563,VALID,23.4505,VALID,358,VALID,0,
2008-09-25, 02:55:04,VALID,1003.91,VALID,0,VALID,94.6134,VALID,0,VALID,23.47,VALID,358,VALID,0,
2008-09-25, 02:56:04,VALID,1003.88,VALID,0,VALID,94.682,VALID,0,VALID,23.47,VALID,358,VALID,0,
2008-09-25, 02:57:04,VALID,1003.87,VALID,0,VALID,94.6897,VALID,0,VALID,23.4487,VALID,358,VALID,0,
2008-09-25, 02:58:04,VALID,1003.88,VALID,0,VALID,94.6973,VALID,0,VALID,23.47,VALID,358,VALID,0,
2008-09-25, 02:59:04,VALID,1003.88,VALID,0,VALID,94.7049,VALID,0,VALID,23.4505,VALID,358,VALID,0,
2008-09-25, 03:00:04,VALID,1003.91,VALID,0,VALID,94.7202,VALID,0.100563,VALID,23.4505,VALID,358,VALID,0,
2008-09-25, 03:01:04,VALID,1003.92,VALID,0,VALID,94.7431,VALID,0.100563,VALID,23.4487,VALID,358,VALID,0,
2008-09-25, 03:02:04,VALID,1003.92,VALID,0,VALID,94.7431,VALID,0,VALID,23.4505,VALID,358,VALID,0,
2008-09-25, 03:03:04,VALID,1003.93,VALID,0,VALID,94.7507,VALID,0.100563,VALID,23.4311,VALID,358,VALID,0,
2008-09-25, 03:04:04,VALID,1003.94,VALID,0,VALID,94.7431,VALID,0,VALID,23.4311,VALID,358,VALID,0,
2008-09-25, 03:05:04,VALID,1003.93,VALID,0,VALID,94.7736,VALID,0,VALID,23.4116,VALID,358,VALID,0,
2008-09-25, 03:06:04,VALID,1003.9,VALID,0,VALID,94.7888,VALID,0,VALID,23.4116,VALID,358,VALID,0,
2008-09-25, 03:07:04,VALID,1003.89,VALID,0,VALID,94.7888,VALID,0,VALID,23.4116,VALID,358,VALID,0,
2008-09-25, 03:08:04,VALID,1003.91,VALID,0,VALID,94.827,VALID,0.100563,VALID,23.4116,VALID,358,VALID,0,
2008-09-25, 03:09:04,VALID,1003.94,VALID,0,VALID,94.8956,VALID,0.100563,VALID,23.4098,VALID,358,VALID,0,
2008-09-25, 03:10:04,VALID,1003.93,VALID,0,VALID,94.9033,VALID,0,VALID,23.4311,VALID,358,VALID,0,
2008-09-25, 03:11:04,VALID,1003.97,VALID,0,VALID,94.9414,VALID,0,VALID,23.4098,VALID,358,VALID,0,
2008-09-25, 03:12:04,VALID,1003.96,VALID,0,VALID,94.8728,VALID,0,VALID,23.4311,VALID,358,VALID,0,
2008-09-25, 03:13:04,VALID,1003.97,VALID,0,VALID,94.888,VALID,0.100563,VALID,23.4505,VALID,358,VALID,0,
2008-09-25, 03:14:04,VALID,1004.01,VALID,0,VALID,94.888,VALID,0.100563,VALID,23.4116,VALID,358,VALID,0,
2008-09-25, 03:15:04,VALID,1003.96,VALID,0,VALID,94.9185,VALID,0,VALID,23.4116,VALID,358,VALID,0,
2008-09-25, 03:16:04,VALID,1003.97,VALID,0,VALID,94.9033,VALID,0,VALID,23.3921,VALID,358,VALID,0,
2008-09-25, 03:17:04,VALID,1003.96,VALID,0,VALID,94.888,VALID,0.100563,VALID,23.4116,VALID,358,VALID,0,
2008-09-25, 03:18:04,VALID,1003.97,VALID,0,VALID,94.8804,VALID,0,VALID,23.3709,VALID,358,VALID,0,
2008-09-25, 03:19:04,VALID,1003.98,VALID,0,VALID,94.8804,VALID,0,VALID,23.3921,VALID,358,VALID,0,
2008-09-25, 03:20:04,VALID,1003.95,VALID,0,VALID,94.9262,VALID,0,VALID,23.4328,VALID,358,VALID,0,
2008-09-25, 03:21:04,VALID,1003.98,VALID,0,VALID,94.9567,VALID,0,VALID,23.4116,VALID,358,VALID,0,
2008-09-25, 03:22:04,VALID,1004.01,VALID,0,VALID,94.949,VALID,0,VALID,23.3691,VALID,358,VALID,0,
2008-09-25, 03:23:04,VALID,1003.99,VALID,0,VALID,94.9185,VALID,0.100563,VALID,23.3904,VALID,358,VALID,0,
2008-09-25, 03:24:04,VALID,1004,VALID,0,VALID,94.9109,VALID,0,VALID,23.3727,VALID,358,VALID,0,
2008-09-25, 03:25:04,VALID,1004,VALID,0,VALID,94.949,VALID,0,VALID,23.3939,VALID,358,VALID,0,
2008-09-25, 03:26:04,VALID,1003.95,VALID,0,VALID,94.9872,VALID,0,VALID,23.4134,VALID,358,VALID,0,
2008-09-25, 03:27:04,VALID,1004,VALID,0,VALID,95.033,VALID,0,VALID,23.4134,VALID,358,VALID,0,
2008-09-25, 03:28:04,VALID,1003.95,VALID,0,VALID,95.0406,VALID,0,VALID,23.3921,VALID,358,VALID,0,
2008-09-25, 03:29:04,VALID,1003.97,VALID,0,VALID,95.0406,VALID,0,VALID,23.4151,VALID,358,VALID,0,
2008-09-25, 03:30:04,VALID,1003.93,VALID,0,VALID,95.033,VALID,0,VALID,23.3921,VALID,358,VALID,0,
2008-09-25, 03:31:04,VALID,1003.92,VALID,0,VALID,95.0558,VALID,0,VALID,23.3939,VALID,358,VALID,0,
2008-09-25, 03:32:04,VALID,1003.94,VALID,0,VALID,95.1169,VALID,0,VALID,23.4134,VALID,358,VALID,0,
2008-09-25, 03:33:04,VALID,1003.94,VALID,0,VALID,95.1245,VALID,0,VALID,23.3921,VALID,358,VALID,0,
2008-09-25, 03:34:04,VALID,1003.94,VALID,0,VALID,95.1093,VALID,0,VALID,23.4116,VALID,358,VALID,0,
2008-09-25, 03:35:04,VALID,1003.99,VALID,0,VALID,95.094,VALID,0,VALID,23.3904,VALID,358,VALID,0,
2008-09-25, 03:36:04,VALID,1004.01,VALID,0,VALID,95.0787,VALID,0,VALID,23.4134,VALID,358,VALID,0,
2008-09-25, 03:37:04,VALID,1004,VALID,0,VALID,95.1169,VALID,0,VALID,23.3921,VALID,358,VALID,0,
2008-09-25, 03:38:04,VALID,1004.02,VALID,0,VALID,95.155,VALID,0,VALID,23.3921,VALID,358,VALID,0,
2008-09-25, 03:39:04,VALID,1004.03,VALID,0,VALID,95.1627,VALID,0,VALID,23.4116,VALID,358,VALID,0,
2008-09-25, 03:40:04,VALID,1004.03,VALID,0,VALID,95.1855,VALID,0.100563,VALID,23.4098,VALID,358,VALID,0,
2008-09-25, 03:41:04,VALID,1004.06,VALID,0,VALID,95.1703,VALID,0,VALID,23.4098,VALID,358,VALID,0,
2008-09-25, 03:42:04,VALID,1004.09,VALID,0,VALID,95.1474,VALID,0,VALID,23.4311,VALID,358,VALID,0,
2008-09-25, 03:43:04,VALID,1004.04,VALID,0,VALID,95.1169,VALID,0.100563,VALID,23.4293,VALID,358,VALID,0,
2008-09-25, 03:44:04,VALID,1004.04,VALID,0,VALID,95.1016,VALID,0,VALID,23.4116,VALID,358,VALID,0,
2008-09-25, 03:45:04,VALID,1004.03,VALID,0,VALID,95.1093,VALID,0,VALID,23.4098,VALID,358,VALID,0,
2008-09-25, 03:46:04,VALID,1004.02,VALID,0,VALID,95.1321,VALID,0,VALID,23.4311,VALID,358,VALID,0,
2008-09-25, 03:47:04,VALID,1004.02,VALID,0,VALID,95.1321,VALID,0.100563,VALID,23.3904,VALID,358,VALID,0.464453,
2008-09-25, 03:48:04,VALID,1004.01,VALID,0,VALID,95.1703,VALID,0.100563,VALID,23.3904,VALID,358,VALID,0.439063,